Location: Neuvy-Saint-S�pulchre
(46.5950°N, 1.8122°E)
Time: 20:30:37
(UTC+02:00)

ISS - Pass Details

Date: 23 April 2026
Orbit: 414 x 424 km, 51.6° (Epoch: 12 May)

Event Time Altitude Azimuth Distance (km) Brightness Sun altitude
Exits shadow 06:17:07 - 260° (W) 1,681 -1.3 -6.3°
Reaches altitude 10° 06:17:34 10° 261° (W) 1,497 -1.6 -6.2°
Maximum altitude 06:20:52 55° 340° (NNW) 512 -3.3 -5.7°
Drops below altitude 10° 06:24:13 10° 60° (ENE) 1,509 0.9 -5.2°
Sets 06:26:21 0° 65° (ENE) 2,377 3.2 -4.9°
